CFG2WR LOWI-EDDM

Flight info

Callsign CFG2WR
Flight time 0h 28m
Altitude 16000
Route RTT DCT NINUR T101 ANDEC/N0385F150 T101 BETOS BETOS1A
Aircraft A339/H-SADE1E2E3GHIJ3J5M1P2RWXY/LB2D1

Departure

Time 2026-04-30 19:42
Airport Innsbruck Airport (LOWI)

Arrival

Time 2026-04-30 20:10
Airport Munich Airport (EDDM)
Time Latitude Longitude Altitude Speed Heading
2026-04-30 19:26 47.25846 11.35167 1929 ft 0 kts 173°
2026-04-30 19:34 47.25853 11.35166 1928 ft 2 kts 173°
2026-04-30 19:35 47.25866 11.35164 1928 ft 0 kts 173°
2026-04-30 19:35 47.25874 11.35162 1928 ft 0 kts 165°
2026-04-30 19:38 47.25868 11.35157 1927 ft 1 kts 233°
2026-04-30 19:38 47.25872 11.35115 1927 ft 5 kts 287°
2026-04-30 19:38 47.25872 11.34994 1927 ft 24 kts 262°
2026-04-30 19:38 47.25835 11.34656 1926 ft 36 kts 261°
2026-04-30 19:39 47.25795 11.34296 1926 ft 34 kts 261°
2026-04-30 19:39 47.25771 11.34039 1926 ft 15 kts 269°
2026-04-30 19:39 47.25805 11.33887 1926 ft 19 kts 306°
2026-04-30 19:39 47.25910 11.33671 1926 ft 25 kts 300°
2026-04-30 19:40 47.25920 11.33467 1926 ft 19 kts 260°
2026-04-30 19:40 47.25896 11.33259 1926 ft 13 kts 257°
2026-04-30 19:40 47.25859 11.33182 1926 ft 7 kts 237°
2026-04-30 19:40 47.25858 11.33125 1926 ft 3 kts 319°
2026-04-30 19:41 47.25880 11.33141 1926 ft 5 kts 51°
2026-04-30 19:41 47.25891 11.33199 1926 ft 9 kts 81°
2026-04-30 19:41 47.25925 11.33509 1926 ft 63 kts 81°
2026-04-30 19:41 47.26035 11.34511 1927 ft 133 kts 81°
2026-04-30 19:42 47.26207 11.36065 2292 ft 162 kts 80°
2026-04-30 19:42 47.26421 11.37668 3127 ft 160 kts 79°
2026-04-30 19:42 47.26633 11.39201 3963 ft 156 kts 79°
2026-04-30 19:42 47.26853 11.40841 4376 ft 170 kts 79°
2026-04-30 19:43 47.27085 11.42621 4846 ft 183 kts 79°
2026-04-30 19:43 47.27338 11.44443 5636 ft 186 kts 76°
2026-04-30 19:43 47.27673 11.46265 6434 ft 188 kts 74°
2026-04-30 19:44 47.28312 11.49996 7840 ft 197 kts 83°
2026-04-30 19:44 47.28288 11.52093 8294 ft 213 kts 92°
2026-04-30 19:44 47.28155 11.54355 8615 ft 228 kts 93°
2026-04-30 19:44 47.27991 11.56714 8888 ft 238 kts 94°
2026-04-30 19:45 47.27811 11.59187 9347 ft 242 kts 94°
2026-04-30 19:45 47.27629 11.61618 9869 ft 244 kts 94°
2026-04-30 19:45 47.27439 11.64123 10408 ft 246 kts 93°
2026-04-30 19:45 47.27325 11.66595 10965 ft 244 kts 79°
2026-04-30 19:46 47.28012 11.68809 11489 ft 240 kts 47°
2026-04-30 19:46 47.29184 11.70599 12064 ft 240 kts 45°
2026-04-30 19:46 47.30336 11.72372 12606 ft 242 kts 46°
2026-04-30 19:46 47.31476 11.74206 13117 ft 242 kts 47°
2026-04-30 19:47 47.32595 11.76072 13652 ft 243 kts 48°
2026-04-30 19:47 47.33328 11.77312 14029 ft 242 kts 48°
2026-04-30 19:47 47.34753 11.79746 14711 ft 243 kts 48°
2026-04-30 19:47 47.35849 11.81627 15255 ft 243 kts 48°
2026-04-30 19:48 47.36951 11.83522 15774 ft 244 kts 48°
2026-04-30 19:48 47.38159 11.85269 16191 ft 244 kts 36°
2026-04-30 19:48 47.39644 11.86514 16313 ft 244 kts 23°
2026-04-30 19:48 47.41274 11.87176 16308 ft 247 kts 10°
2026-04-30 19:49 47.43020 11.87238 16317 ft 250 kts 357°
2026-04-30 19:49 47.46305 11.85470 16314 ft 262 kts 331°
2026-04-30 19:49 47.47684 11.83642 16326 ft 270 kts 316°
2026-04-30 19:50 47.48763 11.81453 16318 ft 273 kts 310°
2026-04-30 19:50 47.49719 11.79316 16327 ft 274 kts 310°
2026-04-30 19:50 47.50831 11.76786 16339 ft 275 kts 309°
2026-04-30 19:50 47.51869 11.74426 16328 ft 274 kts 310°
2026-04-30 19:51 47.52915 11.72054 16329 ft 274 kts 309°
2026-04-30 19:51 47.53957 11.69695 16326 ft 274 kts 310°
2026-04-30 19:51 47.54990 11.67362 16332 ft 274 kts 310°
2026-04-30 19:51 47.56050 11.64965 16319 ft 274 kts 310°
2026-04-30 19:52 47.57085 11.62625 16318 ft 274 kts 310°
2026-04-30 19:52 47.58136 11.60250 16324 ft 274 kts 311°
2026-04-30 19:52 47.59385 11.58238 16289 ft 262 kts 332°
2026-04-30 19:52 47.60959 11.56876 15977 ft 264 kts 339°
2026-04-30 19:53 47.62585 11.55640 15784 ft 260 kts 339°
2026-04-30 19:53 47.64175 11.54399 15569 ft 257 kts 338°
2026-04-30 19:53 47.65733 11.53141 15316 ft 257 kts 337°
2026-04-30 19:53 47.67291 11.51849 15117 ft 255 kts 336°
2026-04-30 19:54 47.68850 11.50532 14948 ft 257 kts 336°
2026-04-30 19:54 47.70388 11.49222 14757 ft 257 kts 336°
2026-04-30 19:54 47.71938 11.47893 14535 ft 256 kts 336°
2026-04-30 19:54 47.73483 11.46562 14311 ft 256 kts 335°
2026-04-30 19:55 47.75027 11.45227 14130 ft 256 kts 335°
2026-04-30 19:55 47.76562 11.43898 13933 ft 256 kts 335°
2026-04-30 19:55 47.78099 11.42567 13743 ft 255 kts 335°
2026-04-30 19:55 47.79629 11.41243 13540 ft 254 kts 335°
2026-04-30 19:56 47.81158 11.39914 13354 ft 253 kts 335°
2026-04-30 19:56 47.82677 11.38594 13322 ft 253 kts 335°
2026-04-30 19:56 47.84262 11.37516 13330 ft 247 kts 354°
2026-04-30 19:56 47.85954 11.37267 13349 ft 245 kts
2026-04-30 19:57 47.87669 11.37202 13341 ft 245 kts
2026-04-30 19:57 47.89350 11.37127 13266 ft 243 kts
2026-04-30 19:57 47.91047 11.37021 12999 ft 243 kts
2026-04-30 19:57 47.92734 11.36890 12725 ft 244 kts
2026-04-30 19:58 47.94443 11.36739 12454 ft 244 kts
2026-04-30 19:58 47.96131 11.36581 12196 ft 243 kts
2026-04-30 19:58 47.97822 11.36415 11956 ft 243 kts
2026-04-30 19:58 47.99500 11.36248 11704 ft 242 kts
2026-04-30 19:59 48.01178 11.36077 11461 ft 241 kts
2026-04-30 19:59 48.02860 11.35906 11218 ft 241 kts
2026-04-30 19:59 48.06137 11.35040 10706 ft 248 kts 339°
2026-04-30 20:00 48.07676 11.33840 10472 ft 248 kts 334°
2026-04-30 20:00 48.09175 11.32575 10237 ft 248 kts 334°
2026-04-30 20:00 48.10655 11.31306 10116 ft 243 kts 334°
2026-04-30 20:00 48.12096 11.30063 9999 ft 237 kts 334°
2026-04-30 20:01 48.14822 11.28759 9726 ft 220 kts
2026-04-30 20:01 48.16351 11.29032 9520 ft 218 kts 13°
2026-04-30 20:01 48.17848 11.29416 9299 ft 217 kts 14°
2026-04-30 20:02 48.20754 11.30579 8754 ft 219 kts 30°
2026-04-30 20:02 48.22118 11.31709 8441 ft 222 kts 33°
2026-04-30 20:03 48.24764 11.34079 7679 ft 226 kts 34°
2026-04-30 20:03 48.26135 11.35311 6996 ft 236 kts 34°
2026-04-30 20:03 48.27487 11.36684 6490 ft 233 kts 45°
2026-04-30 20:03 48.28598 11.38434 6143 ft 227 kts 52°
2026-04-30 20:04 48.29588 11.40239 6029 ft 221 kts 53°
2026-04-30 20:04 48.30530 11.41996 5825 ft 212 kts 54°
2026-04-30 20:04 48.31292 11.43825 5545 ft 203 kts 70°
2026-04-30 20:05 48.31939 11.47855 5047 ft 191 kts 81°
2026-04-30 20:05 48.32137 11.49789 4802 ft 183 kts 83°
2026-04-30 20:05 48.32438 11.53424 4348 ft 167 kts 84°
2026-04-30 20:06 48.32565 11.55118 4155 ft 159 kts 84°
2026-04-30 20:06 48.32687 11.56762 3942 ft 158 kts 84°
2026-04-30 20:06 48.32807 11.58394 3741 ft 156 kts 84°
2026-04-30 20:06 48.32923 11.59983 3512 ft 151 kts 84°
2026-04-30 20:07 48.33039 11.61530 3301 ft 144 kts 84°
2026-04-30 20:07 48.33149 11.63003 3085 ft 142 kts 84°
2026-04-30 20:07 48.33364 11.65944 2739 ft 141 kts 85°
2026-04-30 20:08 48.33474 11.67409 2560 ft 141 kts 84°
2026-04-30 20:08 48.33588 11.68882 2376 ft 141 kts 85°
2026-04-30 20:08 48.33701 11.70341 2196 ft 141 kts 84°
2026-04-30 20:08 48.33812 11.71796 2006 ft 140 kts 84°
2026-04-30 20:09 48.33923 11.73239 1773 ft 139 kts 84°
2026-04-30 20:09 48.34035 11.74684 1577 ft 138 kts 84°
2026-04-30 20:09 48.34212 11.76974 1493 ft 54 kts 83°
2026-04-30 20:10 48.34357 11.77618 1491 ft 22 kts 54°
2026-04-30 20:10 48.34446 11.77800 1490 ft 21 kts 54°
2026-04-30 20:10 48.34546 11.77918 1489 ft 17 kts
2026-04-30 20:11 48.34751 11.77886 1489 ft 15 kts 353°
2026-04-30 20:11 48.34858 11.77867 1489 ft 15 kts 354°
2026-04-30 20:11 48.34969 11.77848 1489 ft 16 kts 352°
2026-04-30 20:12 48.35196 11.77810 1488 ft 16 kts 354°
2026-04-30 20:12 48.35299 11.77805 1487 ft 12 kts 20°
2026-04-30 20:12 48.35336 11.77904 1487 ft 9 kts 83°
2026-04-30 20:13 48.35343 11.78004 1487 ft 9 kts 84°
2026-04-30 20:13 48.35347 11.78107 1487 ft 10 kts 100°
2026-04-30 20:13 48.35308 11.78169 1487 ft 8 kts 170°
2026-04-30 20:13 48.35234 11.78181 1487 ft 13 kts 175°
2026-04-30 20:14 48.35127 11.78200 1488 ft 15 kts 173°
2026-04-30 20:14 48.35055 11.78212 1488 ft 2 kts 173°
2026-04-30 20:14 48.35043 11.78220 1488 ft 1 kts 140°
2026-04-30 20:14 48.35040 11.78230 1488 ft 1 kts 107°
2026-04-30 20:15 48.35039 11.78284 1488 ft 7 kts 83°
2026-04-30 20:15 48.35043 11.78336 1488 ft 2 kts 84°
2026-04-30 20:15 48.35044 11.78342 1488 ft 0 kts 84°